Regional Weather Roundup
Issued by NWS

Home | Current Version | Previous Version | Graphics & Text | Print | Product List | Glossary On
Versions: 1 2 3 4 5 6 7 8 9 10 11 12 13 14 15 16 17 18 19 20 21 22 23 24 25 26 27 28 29 30 31 32 33 34 35 36 37 38 39 40 41 42 43 44 45 46 47 48 49 50
000
ASUS43 KIND 241259
RWRIN

WEATHER ROUNDUP FOR INDIANA
NATIONAL WEATHER SERVICE INDIANAPOLIS IN
900 AM EDT SUN MAY 24 2015

NOTE: "FAIR" INDICATES FEW OR NO CLOUDS BELOW 12,000 FEET WITH NO
SIGNIFICANT WEATHER AND/OR OBSTRUCTIONS TO VISIBILITY.

* - STATION DOES NOT REPORT WEATHER SUCH AS PRECIPITATION OR FOG.

+ - STATION NOT QUALITY CONTROLLED BY THE NATIONAL WEATHER SERVICE.
    USE DATA WITH CAUTION...ESPECIALLY DEWPOINT AND RELATIVE
    HUMIDITY OBSERVATIONS.

INZ001>003-010>013-019-020-241400-
NORTHWEST INDIANA

CITY           SKY/WX    TMP DP  RH WIND       PRES   REMARKS
GARY /AIRPORT/ CLOUDY    66  50  55 SE5       30.20S

$$

LMZ046-743>745-241400-
SOUTHERN LAKE MICHIGAN

STATION/POSITION TIME  TEMP    WIND        PRES    WAVE
                       AIR SEA DIR/SP/G            HT
                 (UTC) (F)     (DEG/KT/KT) (MB)    (FT)
BURNS HARBOR     1200   65     140/  8/ 12 1022.7F
MICHIGAN CITY    1200   64     120/  9/ 11   N/A
5NW MICH CITY    1200   60 54  160/  8/  8   N/A     1

$$

INZ004-005-014>016-021>024-241400-
NORTH CENTRAL INDIANA

CITY           SKY/WX    TMP DP  RH WIND       PRES   REMARKS
ELKHART        PTSUNNY   64  50  59 SE6       30.23F
GOSHEN         PTSUNNY   67  53  61 SE7       30.23F
SOUTH BEND     CLOUDY    66  48  52 S8        30.22F

$$

INZ006>009-017-018-025>027-241400-
NORTHEAST INDIANA

CITY           SKY/WX    TMP DP  RH WIND       PRES   REMARKS
ANGOLA *+      SUNNY     63  55  77 CALM      30.26S
FORT WAYNE     PTSUNNY   67  51  56 SE9       30.26F

$$

INZ028-029-035-036-043>045-051>053-241400-
WEST CENTRAL INDIANA

CITY           SKY/WX    TMP DP  RH WIND       PRES   REMARKS
GREENCASTLE +  PTSUNNY   68  50  52 S9        30.23S
LAFAYETTE      CLOUDY    63  53  70 E3        30.20F
TERRE HAUTE    PTSUNNY   67  54  63 SE9       30.21R

$$

INZ030>032-037>040-046>048-054>057-064-065-241400-
CENTRAL INDIANA

CITY           SKY/WX    TMP DP  RH WIND       PRES   REMARKS
COLUMBUS       PTSUNNY   63  54  72 S6        30.26R
GREENWOOD *+   CLOUDY    64  50  59 SE9       30.25S
INDIANAPOLIS   PTSUNNY   66  51  58 SE9       30.22S
-EAGLE CREEK   CLOUDY    65  52  62 SE6       30.23S
KOKOMO *+      CLOUDY    64  52  63 S10       30.23S
MT COMFORT *+  CLOUDY    64  45  48 S8        30.25S
SHELBYVILLE    CLOUDY    68  53  58 S9        30.25S

$$

INZ033-034-041-042-049-050-058-059-241400-
EAST CENTRAL INDIANA

CITY           SKY/WX    TMP DP  RH WIND       PRES   REMARKS
MUNCIE         CLOUDY    68  50  52 S9        30.25S

$$

INZ060-061-067>069-081>083-085>088-241400-
SOUTHWEST INDIANA

CITY           SKY/WX    TMP DP  RH WIND       PRES   REMARKS
EVANSVILLE     PTSUNNY   68  55  63 S8        30.22R
HUNTINGBURG *+ PTSUNNY   70  54  56 S12       30.24R

$$

INZ062-063-066-070>080-084-089>092-241400-
SOUTH CENTRAL AND SOUTHEAST INDIANA

CITY           SKY/WX    TMP DP  RH WIND       PRES   REMARKS
BLOOMINGTON    PTSUNNY   66  54  65 SE8       30.24R
MADISON *+     PTSUNNY   64  50  59 SE5       30.30R
SEYMOUR +      PTSUNNY   66  54  63 SE6       30.25F

$$




USA.gov is the U.S. government's official web portal to all federal, state and local government web resources and services.